TimeCDT,TemperatureF,Dew PointF,Humidity,Sea Level PressureIn,VisibilityMPH,Wind Direction,Wind SpeedMPH,Gust SpeedMPH,PrecipitationIn,Events,Conditions,WindDirDegrees,DateUTC
12:17 AM,68.0,60.8,78,29.74,10.0,NW,8.1,-,N/A,,Scattered Clouds,310,2013-05-31 05:17:00
12:53 AM,69.1,59.0,70,29.69,10.0,ESE,5.8,-,N/A,,Partly Cloudy,110,2013-05-31 05:53:00
1:53 AM,69.1,60.1,73,29.63,10.0,ESE,10.4,-,0.02,,Clear,110,2013-05-31 06:53:00
2:53 AM,70.0,63.0,78,29.58,10.0,ESE,13.8,25.3,N/A,,Clear,120,2013-05-31 07:53:00
3:53 AM,68.0,64.9,90,29.59,10.0,SSE,8.1,-,N/A,,Clear,150,2013-05-31 08:53:00
4:22 AM,66.2,64.4,94,29.64,10.0,Calm,Calm,-,N/A,,Scattered Clouds,0,2013-05-31 09:22:00
4:32 AM,66.2,64.4,94,29.65,10.0,NNW,3.5,-,N/A,,Mostly Cloudy,340,2013-05-31 09:32:00
4:53 AM,68.0,64.0,87,29.62,10.0,Calm,Calm,-,N/A,,Overcast,0,2013-05-31 09:53:00
5:53 AM,68.0,64.9,90,29.63,10.0,SE,4.6,-,N/A,,Overcast,140,2013-05-31 10:53:00
6:53 AM,69.1,64.9,87,29.66,10.0,Calm,Calm,-,N/A,,Overcast,0,2013-05-31 11:53:00
7:51 AM,66.2,60.8,83,29.73,10.0,NW,8.1,-,0.00,,Overcast,320,2013-05-31 12:51:00
7:52 AM,66.0,61.0,84,29.71,10.0,NW,9.2,-,0.00,,Overcast,320,2013-05-31 12:52:00
8:02 AM,66.2,60.8,83,29.73,10.0,NW,8.1,-,N/A,,Overcast,320,2013-05-31 13:02:00
8:23 AM,69.8,60.8,73,29.73,10.0,NW,8.1,-,N/A,,Mostly Cloudy,320,2013-05-31 13:23:00
8:53 AM,71.1,60.1,68,29.71,10.0,NNW,8.1,-,N/A,,Clear,330,2013-05-31 13:53:00
9:53 AM,73.9,60.1,62,29.71,10.0,WNW,4.6,-,N/A,,Clear,300,2013-05-31 14:53:00
10:53 AM,75.9,61.0,60,29.72,10.0,NW,4.6,-,N/A,,Clear,310,2013-05-31 15:53:00
11:53 AM,78.1,60.1,54,29.73,10.0,Variable,3.5,-,N/A,,Clear,0,2013-05-31 16:53:00
12:53 PM,79.0,55.9,45,29.73,10.0,Calm,Calm,-,N/A,,Clear,0,2013-05-31 17:53:00
1:53 PM,81.0,54.0,39,29.71,10.0,NNW,11.5,-,N/A,,Clear,330,2013-05-31 18:53:00
2:53 PM,81.0,52.0,36,29.71,10.0,NW,5.8,-,N/A,,Clear,310,2013-05-31 19:53:00
3:53 PM,82.9,50.0,32,29.71,10.0,WNW,6.9,-,N/A,,Clear,300,2013-05-31 20:53:00
4:53 PM,82.9,52.0,34,29.70,10.0,WSW,6.9,-,N/A,,Clear,250,2013-05-31 21:53:00
5:53 PM,82.9,52.0,34,29.68,10.0,SW,9.2,-,N/A,,Clear,230,2013-05-31 22:53:00
6:53 PM,82.0,53.1,37,29.67,10.0,WSW,4.6,-,N/A,,Clear,240,2013-05-31 23:53:00
7:53 PM,78.1,52.0,40,29.65,9.0,NW,8.1,-,N/A,,Clear,310,2013-06-01 00:53:00
8:53 PM,75.0,57.0,53,29.66,9.0,Calm,Calm,-,N/A,,Clear,0,2013-06-01 01:53:00
9:53 PM,70.0,55.9,61,29.71,10.0,South,6.9,-,N/A,,Clear,170,2013-06-01 02:53:00
10:53 PM,70.0,57.9,65,29.75,10.0,SSW,8.1,-,N/A,,Clear,210,2013-06-01 03:53:00
11:53 PM,68.0,55.9,65,29.76,10.0,NNW,6.9,-,N/A,,Clear,330,2013-06-01 04:53:00